Snowfall_Accumulation
3.7 2.6 2.1 2.9 3.6 3.4 4.5 4.2 2.4 2.0 0.0 0.0 0.0 0.0 0.0 0.0 0.0 0.0 0.0 0.0 0.0 0.0
4.7 3.7 2.7 2.8 2.5 3.6 3.9 3.3 2.7 2.9 1.8 2.0 2.0 0.0 0.0 0.0 0.0 0.0 0.0 0.0 0.0 0.0
5.9 5.1 4.4 3.1 2.8 2.7 2.9 3.8 3.7 2.6 2.6 2.4 3.4 3.8 4.0 2.9 2.6 1.5 0.0 0.0 0.0 0.0
6.0 5.4 4.1 3.9 3.5 3.0 2.1 1.9 2.9 3.7 3.2 1.9 2.5 3.3 3.8 4.0 5.0 5.9 6.7 2.5 2.3 2.1
6.2 5.4 4.9 4.9 4.1 3.0 2.5 1.6 1.8 2.3 3.0 3.2 3.5 2.6 2.6 3.5 4.0 4.7 5.1 5.7 6.5 6.9
4.3 4.9 5.7 6.0 6.0 4.7 3.5 2.5 1.1 1.2 1.4 2.5 2.9 2.9 2.9 2.1 1.9 3.5 3.8 3.8 4.4 5.7
2.9 3.4 4.2 4.5 4.6 4.8 5.1 4.4 4.2 2.7 1.7 1.8 1.5 1.9 2.5 2.6 2.7 2.5 2.2 1.4 2.4 2.6
1.2 1.5 1.7 2.0 2.2 2.3 3.1 4.0 4.2 3.8 3.5 3.2 3.0 2.8 2.0 2.1 1.9 1.8 2.2 2.2 1.9 1.8
0.4 0.5 0.6 0.7 0.8 0.9 1.1 1.6 1.8 2.5 2.8 3.1 3.4 2.9 3.0 3.5 3.2 3.1 1.6 1.1 0.5 0.4
0.1 0.0 0.2 0.3 0.4 0.4 0.7 0.7 0.5 0.8 1.2 1.7 1.8 2.1 2.4 3.0 2.9 1.9 2.0 2.0 1.8 1.4
0.1 0.0 0.0 0.0 0.0 0.2 0.3 0.3 0.6 0.5 0.5 0.4 0.1 0.8 1.6 2.1 3.0 1.7 1.5 1.3 1.0 1.1
0.0 0.0 0.0 0.0 0.0 0.0 0.0 0.0 0.2 0.2 0.4 0.3 0.1 0.1 1.0 1.9 1.5 0.9 0.2 0.3 1.0 1.3
0.0 0.0 0.0 0.0 0.0 0.0 0.0 0.0 0.0 0.0 0.0 0.1 0.3 0.1 0.3 1.4 2.0 1.3 0.6 0.0 0.0 0.1
0.0 0.0 0.0 0.0 0.0 0.0 0.0 0.0 0.0 0.0 0.0 0.0 0.0 0.0 0.0 0.4 1.4 1.8 1.0 0.5 0.2 0.2